Location: Unspecified
(0.0000°N, 0.0000°E)
Time: 12:41:57
(UTC+00:00)

LightSail 2 - Pass Details

Date: 28 March 2020
Orbit: 693 x 726 km, 24.0° (Epoch: 02 April)

Event Time Altitude Azimuth Distance (km) Brightness Sun altitude
Rises 18:55:20 0° 262° (W) 3,112 10.3 -12.6°
Reaches altitude 10° 18:58:33 10° 243° (WSW) 2,188 8.6 -13.4°
Maximum altitude 19:01:56 17° 202° (SSW) 1,732 7.4 -14.2°
Drops below altitude 10° 19:05:19 10° 160° (SSE) 2,175 7.4 -15.1°
Enters shadow 19:06:40 - 150° (SSE) 2,530 7.7 -15.4°
